Paynesville, MN

6:00 AM CDT on May 27, 2017 (GMT -0500)
Paynesville

Weather History for KPEX - May, 2013

Change the Weather History Date:

Sunday, May 12, 2013

  Actual Average (KLJF) Record (KLJF)
Temperature  
Mean Temperature 41 °F -  
Max Temperature 58 °F 68 °F 88 °F (1991)
Min Temperature 25 °F 44 °F 30 °F (1967)
Degree Days  
Heating Degree Days 24    
Moisture  
Dew Point 19 °F    
Average Humidity 41    
Maximum Humidity 83    
Minimum Humidity 18    
Precipitation  
Precipitation 0.00 in - - ()
Sea Level Pressure  
Sea Level Pressure 30.18 in    
Wind  
Wind Speed 6 mph (NW)    
Max Wind Speed 15 mph    
Max Gust Speed 22 mph    
Visibility 10 miles    
Events      
Averages and records for this station are not official NWS values.
T = Trace of Precipitation, MM = Missing Value Source: NWS Daily Summary

Daily Weather History Graph

Daily Weather History Graph

Search for Another Location

Airport or City:

Trip Planner

Search our weather history database for the weather conditions in past years. The results will help you decide how hot, cold, wet, or windy it might be!

Date:

Astronomy

May. 12, 2013 Rise Set
Actual Time 5:52 AM CDT 8:39 PM CDT
Civil Twilight 5:17 AM CDT 9:13 PM CDT
Nautical Twilight 4:34 AM CDT 9:57 PM CDT
Astronomical Twilight 3:44 AM CDT 10:48 PM CDT
Moon 7:46 AM CDT (5/12) 11:08 PM CDT (5/12)
Length of Visible Light 15h 55m
Length of Day
14h 47m
Waxing Crescent, 7% of the Moon is Illuminated
May 12
Waxing Crescent
May 17
First Quarter
May 24
Full
May 31
Last Quarter
Jun 8
New

Hourly Weather History & Observations

Time (CDT) Temp. Windchill Dew Point Humidity Pressure Visibility Wind Dir Wind Speed Gust Speed Precip Events Conditions
12:13 AM 36.9 °F 32.2 °F 20.5 °F 52% 30.21 in 10.0 mi NW 5.8 mph - N/A   Clear
12:33 AM 36.0 °F 33.3 °F 21.0 °F 55% 30.22 in 10.0 mi WNW 3.5 mph - N/A   Clear
12:53 AM 35.8 °F 31.9 °F 21.2 °F 55% 30.22 in 10.0 mi WNW 4.6 mph - N/A   Clear
1:13 AM 35.4 °F 31.5 °F 21.4 °F 57% 30.22 in 10.0 mi WNW 4.6 mph - N/A   Clear
1:33 AM 34.3 °F 30.2 °F 21.6 °F 60% 30.22 in 10.0 mi WNW 4.6 mph - N/A   Clear
1:53 AM 34.5 °F 31.6 °F 21.2 °F 58% 30.23 in 10.0 mi NW 3.5 mph - N/A   Clear
2:13 AM 34.7 °F 31.8 °F 21.0 °F 57% 30.22 in 10.0 mi NW 3.5 mph - N/A   Clear
2:33 AM 34.7 °F 29.6 °F 20.5 °F 56% 30.22 in 10.0 mi NNW 5.8 mph - N/A   Clear
2:53 AM 34.7 °F 29.6 °F 20.3 °F 56% 30.22 in 10.0 mi NNW 5.8 mph - N/A   Clear
3:13 AM 34.7 °F 29.6 °F 20.3 °F 56% 30.21 in 10.0 mi NNW 5.8 mph - N/A   Clear
3:33 AM 32.0 °F - 20.3 °F 62% 30.22 in 10.0 mi Calm Calm - N/A   Clear
3:53 AM 29.1 °F - 20.3 °F 70% 30.22 in 10.0 mi Calm Calm - N/A   Clear
4:33 AM 27.1 °F 23.2 °F 21.2 °F 78% 30.22 in 10.0 mi WSW 3.5 mph - N/A   Clear
4:53 AM 26.2 °F 22.1 °F 20.8 °F 80% 30.21 in 10.0 mi WSW 3.5 mph - N/A   Clear
5:13 AM 26.1 °F 19.4 °F 21.0 °F 81% 30.22 in 10.0 mi WSW 5.8 mph - N/A   Clear
5:33 AM 26.6 °F 22.6 °F 21.7 °F 82% 30.22 in 10.0 mi WSW 3.5 mph - N/A   Clear
5:53 AM 25.7 °F 21.5 °F 21.2 °F 83% 30.22 in 10.0 mi WSW 3.5 mph - N/A   Clear
6:13 AM 26.6 °F 22.6 °F 21.9 °F 82% 30.23 in 10.0 mi WSW 3.5 mph - N/A   Clear
6:33 AM 27.9 °F 24.0 °F 22.5 °F 80% 30.23 in 10.0 mi WSW 3.5 mph - N/A   Clear
6:53 AM 29.5 °F 25.9 °F 23.2 °F 77% 30.23 in 10.0 mi West 3.5 mph - N/A   Clear
7:13 AM 31.5 °F - 23.9 °F 74% 30.23 in 10.0 mi Calm Calm - N/A   Clear
7:33 AM 32.9 °F - 25.2 °F 73% 30.24 in 10.0 mi Calm Calm - N/A   Clear
7:53 AM 37.6 °F 34.0 °F 24.1 °F 58% 30.24 in 10.0 mi WNW 4.6 mph - N/A   Clear
8:13 AM 39.0 °F 32.8 °F 23.0 °F 53% 30.24 in 10.0 mi NNW 9.2 mph - N/A   Clear
8:33 AM 40.8 °F 36.2 °F 22.5 °F 48% 30.24 in 10.0 mi NNW 6.9 mph - N/A   Clear
8:53 AM 41.7 °F 36.1 °F 21.7 °F 45% 30.24 in 10.0 mi NW 9.2 mph - N/A   Clear
9:13 AM 43.2 °F 37.9 °F 18.9 °F 38% 30.24 in 10.0 mi NNW 9.2 mph - N/A   Clear
9:33 AM 43.7 °F 37.7 °F 18.7 °F 37% 30.24 in 10.0 mi NW 11.5 mph - N/A   Clear
9:53 AM 44.6 °F 40.2 °F 18.3 °F 35% 30.24 in 10.0 mi NNW 8.1 mph 17.3 mph N/A   Clear
10:13 AM 45.1 °F 40.3 °F 18.1 °F 34% 30.23 in 10.0 mi NNW 9.2 mph - N/A   Clear
10:33 AM 46.0 °F 40.2 °F 16.3 °F 30% 30.23 in 10.0 mi NNW 12.7 mph - N/A   Clear
10:53 AM 46.8 °F - 16.3 °F 30% 30.23 in 10.0 mi NNW 11.5 mph 17.3 mph N/A   Clear
11:13 AM 47.3 °F - 15.4 °F 28% 30.22 in 10.0 mi NW 5.8 mph 17.3 mph N/A   Clear
11:32 AM 48.6 °F - 14.9 °F 26% 30.22 in 10.0 mi NW 13.8 mph 18.4 mph N/A   Clear
11:53 AM 49.1 °F - 12.9 °F 23% 30.21 in 10.0 mi NW 11.5 mph 18.4 mph N/A   Clear
12:13 PM 50.5 °F - 13.8 °F 23% 30.21 in 10.0 mi NNW 10.4 mph 19.6 mph N/A   Clear
12:33 PM 50.9 °F - 13.8 °F 23% 30.20 in 10.0 mi NNW 15.0 mph 21.9 mph N/A   Clear
12:53 PM 51.4 °F - 13.3 °F 22% 30.19 in 10.0 mi NNW 13.8 mph 21.9 mph N/A   Clear
1:12 PM 52.2 °F - 13.8 °F 22% 30.19 in 10.0 mi NW 10.4 mph 18.4 mph N/A   Clear
1:33 PM 53.6 °F - 15.6 °F 22% 30.18 in 10.0 mi WNW 12.7 mph 16.1 mph N/A   Clear
1:53 PM 53.4 °F - 15.4 °F 22% 30.17 in 10.0 mi NNW 13.8 mph 21.9 mph N/A   Clear
2:13 PM 54.7 °F - 16.3 °F 22% 30.16 in 10.0 mi WNW 10.4 mph 16.1 mph N/A   Clear
2:33 PM 54.7 °F - 16.7 °F 22% 30.16 in 10.0 mi NW 9.2 mph 19.6 mph N/A   Clear
2:53 PM 55.9 °F - 17.2 °F 22% 30.16 in 10.0 mi NNW 11.5 mph - N/A   Clear
3:13 PM 56.8 °F - 16.5 °F 21% 30.15 in 10.0 mi West 15.0 mph 19.6 mph N/A   Clear
3:33 PM 56.8 °F - 14.4 °F 19% 30.14 in 10.0 mi NW 8.1 mph 17.3 mph N/A   Clear
3:53 PM 57.0 °F - 14.4 °F 19% 30.14 in 10.0 mi NW 11.5 mph 19.6 mph N/A   Clear
4:13 PM 57.0 °F - 14.2 °F 19% 30.14 in 10.0 mi NNW 10.4 mph 18.4 mph N/A   Clear
4:32 PM 57.0 °F - 14.2 °F 19% 30.13 in 10.0 mi NNW 8.1 mph 21.9 mph N/A   Clear
4:53 PM 57.2 °F - 14.2 °F 18% 30.13 in 10.0 mi NW 9.2 mph 13.8 mph N/A   Clear
5:13 PM 57.7 °F - 15.4 °F 19% 30.12 in 10.0 mi NNW 6.9 mph 19.6 mph N/A   Clear
5:33 PM 57.4 °F - 15.3 °F 19% 30.12 in 10.0 mi NNW 9.2 mph - N/A   Clear
5:53 PM 56.7 °F - 14.7 °F 19% 30.11 in 10.0 mi North 9.2 mph - N/A   Clear
6:13 PM 57.2 °F - 15.1 °F 19% 30.11 in 10.0 mi NW 11.5 mph - N/A   Clear
6:33 PM 57.4 °F - 15.6 °F 19% 30.11 in 10.0 mi NW 11.5 mph 16.1 mph N/A   Clear
6:53 PM 56.8 °F - 16.3 °F 20% 30.10 in 10.0 mi NW 8.1 mph - N/A   Clear
7:13 PM 55.9 °F - 16.0 °F 21% 30.10 in 10.0 mi NNW 9.2 mph - N/A   Clear
7:33 PM 55.8 °F - 16.3 °F 21% 30.10 in 10.0 mi NNW 8.1 mph - N/A   Clear
7:53 PM 54.5 °F - 16.9 °F 23% 30.11 in 10.0 mi North 6.9 mph - N/A   Clear
8:13 PM 52.9 °F - 17.2 °F 25% 30.10 in 10.0 mi North 3.5 mph - N/A   Clear
8:33 PM 51.3 °F - 17.8 °F 27% 30.10 in 10.0 mi Calm Calm - N/A   Clear
8:53 PM 50.4 °F - 17.6 °F 27% 30.10 in 10.0 mi Calm Calm - N/A   Clear
9:13 PM 49.3 °F - 19.8 °F 31% 30.10 in 10.0 mi Calm Calm - N/A   Clear
9:33 PM 48.9 °F - 18.9 °F 30% 30.11 in 10.0 mi Calm Calm - N/A   Clear
9:53 PM 48.7 °F - 19.8 °F 32% 30.11 in 10.0 mi Calm Calm - N/A   Clear
10:13 PM 45.5 °F - 22.8 °F 41% 30.11 in 10.0 mi Calm Calm - N/A   Clear
10:33 PM 44.6 °F - 21.2 °F 39% 30.10 in 10.0 mi Calm Calm - N/A   Clear
10:53 PM 41.5 °F - 22.1 °F 46% 30.10 in 10.0 mi Calm Calm - N/A   Clear
11:13 PM 40.5 °F - 25.0 °F 54% 30.10 in 10.0 mi Calm Calm - N/A   Clear
11:33 PM 40.1 °F - 23.9 °F 52% 30.10 in 10.0 mi Calm Calm - N/A   Clear
11:53 PM 39.0 °F - 25.5 °F 58% 30.09 in 10.0 mi Calm Calm - N/A   Clear